Location: Albuquerque Trailhead
(34.7934°N, 106.3736°W)
Time: 23:45:03
(UTC+00:00)

ATLAS CENTAUR R/B - Pass Details

Date: 20 June 2021
Orbit: 472 x 671 km, 64.6° (Epoch: 13 June)

Event Time Altitude Azimuth Distance (km) Brightness Sun altitude
Rises 05:48:06 0° 320° (NW) 2,856 6.0 -28.8°
Reaches altitude 10° 05:50:27 10° 312° (NW) 1,981 4.9 -29.0°
Enters shadow 05:53:06 28° 283° (WNW) 1,185 3.2 -29.2°
